Home   Weather   Annapolis   Past weeks

Flag for USA Past Weather in Annapolis, Maryland, USA — Yesterday and Last 2 Weeks

49 °F


Feels Like: 45 °F
Forecast: 47 / 65 °F
Wind: 8 mph from West

Location: Annapolis - United States Naval Academy

Current Time: Oct 23, 2016 at 3:47:57 AM

Latest Report: Oct 23, 2016 at 2:54 AM

Visibility: 10 mi

Pressure: 29.93 "Hg

Humidity: 52%

Dew Point: 32 °F

Location of AnnapolisLocation

Past Weather in Annapolis — Graph


Annapolis Temperature Yesterday

Maximum temperature yesterday: 61 °F (at 12:54 AM)
Minimum temperature yesterday: 52 °F (at 10:54 PM)
Average temperature yesterday: 57 °F

High & Low Weather Summary for the Past Weeks

High84 °F (Oct 19, 1:54 PM)97% (Oct 13, 8:02 AM)30.48 "Hg (Oct 13, 8:02 AM)
Low49 °F (Oct 23, 2:54 AM)38% (Oct 14, 3:54 PM)29.53 "Hg (Oct 21, 2:54 PM)
Average63 °F75%30.09 "Hg
* Reported Oct 8 2:54 AM — Oct 23 2:54 AM, Annapolis, Weather by CustomWeather, © 2016

Note: Actual official high and low records may vary slightly from our data, if they occured in-between our weather recording intervals... More about our weather records


Annapolis Weather History for the Previous 24 Hours

Scroll right to see more
Time TempWeatherWind HumidityBarometerVisibility
2:54 AM
Sun, Oct 23
49 °FClear.8 mph52%29.93 "Hg10 mi
1:54 AM50 °FClear.6 mph50%29.91 "Hg10 mi
12:54 AM51 °FClear.9 mph48%29.90 "Hg10 mi
11:54 PM
Sat, Oct 22
52 °FClear.10 mph49%29.88 "Hg10 mi
10:54 PM52 °FClear.10 mph49%29.88 "Hg10 mi
9:54 PM53 °FClear.14 mph52%29.87 "Hg10 mi
8:54 PM54 °FClear.10 mph53%29.85 "Hg10 mi
7:54 PM55 °FClear.9 mph51%29.83 "Hg10 mi
6:54 PM56 °FPassing clouds.10 mph49%29.80 "Hg10 mi
5:54 PM58 °FScattered clouds.12 mph46%29.76 "Hg10 mi
4:54 PM60 °FPassing clouds.15 mph42%29.73 "Hg10 mi
3:54 PM61 °FScattered clouds.17 mph39%29.71 "Hg10 mi
2:54 PM60 °FSunny.20 mph39%29.70 "Hg10 mi
1:54 PM59 °FSunny.17 mph39%29.70 "Hg10 mi
12:54 PM58 °FSunny.15 mph44%29.71 "Hg10 mi
11:54 AM57 °FPassing clouds.20 mph49%29.71 "Hg10 mi
10:54 AM55 °FPartly sunny.17 mph55%29.69 "Hg10 mi
9:54 AM56 °FLight rain. More clouds than sun.12 mph60%29.67 "Hg10 mi
8:54 AM55 °FLight rain. Overcast.13 mph67%29.65 "Hg10 mi
7:54 AM56 °FOvercast.12 mph62%29.62 "Hg10 mi
6:54 AM57 °FOvercast.16 mph60%29.60 "Hg10 mi
5:54 AM57 °FMostly cloudy.14 mph64%29.58 "Hg10 mi
4:54 AM57 °FOvercast.17 mph64%29.57 "Hg10 mi
3:54 AM59 °FMostly cloudy.22 mph62%29.56 "Hg10 mi
Weather by CustomWeather, © 2016

See weather overviewHow to use our weather pages